Date String (YYYY-MM-DD hh:mm:ss) UTC,Instrument flags,Ambient pressure (hPa),Sample flow (lpm),Bypass flow (lpm),Sample temperature (°C),Ambient temperature (°C),ASC tube jacket temperature (°C),LED temperature (°C),Box temperature (°C),Sample RH (%),Span deviation,Mass concentration (μg/m³),Mass concentration (μg/m³),Mass concentration (μg/m³)
DateTimeUTC,F1_M11,P_M11,Q1_M11,Q2_M11,T1_M11,T2_M11,T3_M11,T4_M11,T5_M11,U1_M11,ZSPAN_M11,X0_M11,X2_M11,X1_M11
2022-08-09 12:00:00,,0830.5,4.99,0.00,29.8,28.8,00.0,38.6,31.8,28.9,0000.0,0011.71,0006.16,0005.49
2022-08-09 12:01:00,,0830.6,5.00,0.00,29.9,28.8,00.0,38.6,31.8,29.2,0000.0,0012.29,0006.18,0005.49
2022-08-09 12:02:00,,0830.6,5.00,0.00,29.9,28.8,00.0,38.7,31.8,29.3,0000.0,0012.34,0006.14,0005.48
2022-08-09 12:03:00,,0830.6,5.00,0.00,29.9,28.9,00.0,38.7,31.9,29.4,0000.0,0012.81,0006.09,0005.47
2022-08-09 12:04:00,,0830.6,5.00,0.00,29.9,28.9,00.0,38.7,31.9,29.4,0000.0,0013.00,0006.08,0005.47
2022-08-09 12:05:00,,0830.6,5.01,0.00,29.9,29.0,00.0,38.7,31.9,29.3,0000.0,0013.04,0006.08,0005.45
2022-08-09 12:06:00,,0830.6,5.00,0.00,30.0,29.0,00.0,38.7,31.9,29.3,0000.0,0013.18,0006.13,0005.43
2022-08-09 12:07:00,,0830.7,5.00,0.00,30.0,29.0,00.0,38.7,32.0,29.5,0000.0,0013.78,0006.14,0005.42
2022-08-09 12:08:00,,0830.6,5.00,0.00,30.0,29.0,00.0,38.8,32.0,29.5,0000.0,0014.18,0006.12,0005.40
2022-08-09 12:09:00,,0830.6,4.99,0.00,30.0,28.6,00.0,38.7,31.9,29.3,0000.0,0014.51,0006.10,0005.38
2022-08-09 12:10:00,,0830.6,5.01,0.00,30.0,27.9,00.0,38.7,31.7,29.4,0000.0,0014.12,0006.05,0005.38
2022-08-09 12:11:00,,0830.6,4.99,0.00,29.9,27.6,00.0,38.7,31.6,29.3,0000.0,0013.60,0006.00,0005.36
2022-08-09 12:12:00,,0830.6,5.00,0.00,29.8,27.6,00.0,38.7,31.5,29.1,0000.0,0014.09,0006.00,0005.35
2022-08-09 12:13:00,,0830.7,5.00,0.00,29.7,27.6,00.0,38.6,31.5,28.9,0000.0,0014.22,0006.02,0005.35
2022-08-09 12:14:00,,0830.7,4.99,0.00,29.7,27.8,00.0,38.6,31.5,28.9,0000.0,0013.89,0006.05,0005.35
2022-08-09 12:15:00,,0830.7,5.01,0.00,29.7,27.9,00.0,38.6,31.5,28.6,0000.0,0013.59,0006.06,0005.34
2022-08-09 12:16:00,,0830.7,5.00,0.00,29.7,28.0,00.0,38.6,31.6,28.6,0000.0,0013.85,0006.09,0005.34
2022-08-09 12:17:00,,0830.7,4.99,0.00,29.7,28.1,00.0,38.6,31.6,28.2,0000.0,0013.81,0006.06,0005.33
2022-08-09 12:18:00,,0830.7,5.00,0.00,29.7,28.2,00.0,38.6,31.6,28.1,0000.0,0013.18,0006.02,0005.30
2022-08-09 12:19:00,,0830.8,5.00,0.00,29.7,28.4,00.0,38.6,31.6,28.3,0000.0,0013.11,0006.00,0005.30
2022-08-09 12:20:00,,0830.8,4.99,0.00,29.7,28.4,00.0,38.6,31.7,28.2,0000.0,0013.36,0005.98,0005.30
2022-08-09 12:21:00,,0830.8,5.00,0.00,29.8,28.5,00.0,38.6,31.7,28.2,0000.0,0013.05,0005.99,0005.30
2022-08-09 12:22:00,,0830.7,5.00,0.00,29.8,28.6,00.0,38.6,31.7,28.5,0000.0,0012.84,0006.01,0005.30
2022-08-09 12:23:00,,0830.7,5.00,0.00,29.8,28.7,00.0,38.6,31.7,28.3,0000.0,0011.74,0005.95,0005.30
2022-08-09 12:24:00,,0830.7,5.00,0.00,29.8,28.7,00.0,38.6,31.8,28.2,0000.0,0011.14,0005.96,0005.30
2022-08-09 12:25:00,,0830.8,5.00,0.00,29.8,28.8,00.0,38.6,31.8,28.5,0000.0,0010.80,0005.98,0005.30
2022-08-09 12:26:00,,0830.9,5.00,0.00,29.9,28.8,00.0,38.6,31.8,28.6,0000.0,0010.58,0005.96,0005.30
2022-08-09 12:27:00,,0830.9,5.00,0.00,29.9,28.9,00.0,38.7,31.8,28.8,0000.0,0010.30,0005.90,0005.30
2022-08-09 12:28:00,,0831.0,5.00,0.00,29.9,28.9,00.0,38.7,31.9,28.6,0000.0,0010.30,0005.91,0005.31
2022-08-09 12:29:00,,0830.9,5.01,0.00,29.9,28.9,00.0,38.7,31.9,28.4,0000.0,0010.38,0005.93,0005.33
2022-08-09 12:30:00,,0830.9,5.01,0.00,29.9,29.0,00.0,38.7,31.9,28.4,0000.0,0010.04,0005.97,0005.33
2022-08-09 12:31:00,,0830.9,4.99,0.00,30.0,29.0,00.0,38.7,31.9,28.4,0000.0,0009.67,0006.07,0005.34
2022-08-09 12:32:00,,0830.9,4.99,0.00,30.0,29.0,00.0,38.7,32.0,28.3,0000.0,0010.01,0006.11,0005.35
2022-08-09 12:33:00,,0831.0,5.01,0.00,30.0,29.1,00.0,38.8,32.0,28.4,0000.0,0010.84,0006.16,0005.35
2022-08-09 12:34:00,,0831.0,5.00,0.00,30.0,29.0,00.0,38.8,32.0,28.6,0000.0,0011.60,0006.17,0005.35
2022-08-09 12:35:00,,0831.1,5.01,0.00,30.0,28.4,00.0,38.7,31.8,28.6,0000.0,0011.99,0006.18,0005.35
2022-08-09 12:36:00,,0831.1,5.00,0.00,30.0,27.8,00.0,38.7,31.7,28.8,0000.0,0013.01,0006.22,0005.35
2022-08-09 12:37:00,,0831.1,5.00,0.00,29.9,27.6,00.0,38.7,31.6,28.9,0000.0,0013.78,0006.25,0005.36
2022-08-09 12:38:00,,0831.0,5.00,0.00,29.8,27.7,00.0,38.7,31.6,29.0,0000.0,0013.90,0006.30,0005.37
2022-08-09 12:39:00,,0831.0,5.00,0.00,29.8,27.7,00.0,38.7,31.6,28.7,0000.0,0013.97,0006.33,0005.37
2022-08-09 12:40:00,,0831.0,4.99,0.00,29.8,27.9,00.0,38.6,31.6,28.2,0000.0,0013.94,0006.33,0005.36
2022-08-09 12:41:00,,0831.1,5.01,0.00,29.8,28.0,00.0,38.6,31.6,28.3,0000.0,0013.92,0006.29,0005.35
2022-08-09 12:42:00,,0831.0,4.99,0.00,29.8,28.1,00.0,38.6,31.6,28.2,0000.0,0014.11,0006.21,0005.33
2022-08-09 12:43:00,,0831.0,5.00,0.00,29.8,28.2,00.0,38.6,31.6,28.1,0000.0,0013.73,0006.16,0005.31
2022-08-09 12:44:00,,0831.0,5.01,0.00,29.8,28.3,00.0,38.6,31.7,28.2,0000.0,0013.18,0006.11,0005.30
2022-08-09 12:45:00,,0831.1,5.01,0.00,29.8,28.4,00.0,38.6,31.7,28.2,0000.0,0012.66,0006.11,0005.28
2022-08-09 12:46:00,,0831.1,4.99,0.00,29.8,28.5,00.0,38.6,31.7,28.0,0000.0,0012.18,0006.05,0005.24
2022-08-09 12:47:00,,0831.2,4.99,0.00,29.8,28.6,00.0,38.6,31.7,28.2,0000.0,0011.12,0005.96,0005.20
2022-08-09 12:48:00,,0831.1,5.00,0.00,29.8,28.6,00.0,38.6,31.8,28.5,0000.0,0010.46,0005.92,0005.16
2022-08-09 12:49:00,,0831.1,5.00,0.00,29.8,28.7,00.0,38.6,31.7,28.4,0000.0,0010.31,0005.85,0005.12
2022-08-09 12:50:00,,0831.2,4.99,0.00,29.8,28.7,00.0,38.6,31.7,28.0,0000.0,0010.32,0005.80,0005.08
2022-08-09 12:51:00,,0831.1,5.00,0.00,29.9,28.8,00.0,38.7,31.8,27.8,0000.0,0010.33,0005.75,0005.04
2022-08-09 12:52:00,,0831.1,5.00,0.00,29.9,28.8,00.0,38.7,31.9,28.4,0000.0,0010.26,0005.72,0005.02
2022-08-09 12:53:00,,0831.2,5.00,0.00,29.9,28.8,00.0,38.7,31.9,28.5,0000.0,0009.90,0005.71,0004.99
2022-08-09 12:54:00,,0831.2,4.99,0.00,29.9,28.9,00.0,38.7,31.9,28.7,0000.0,0010.07,0005.67,0004.96
2022-08-09 12:55:00,,0831.2,5.01,0.00,29.9,28.9,00.0,38.7,31.9,28.8,0000.0,0010.31,0005.61,0004.93
2022-08-09 12:56:00,,0831.2,5.00,0.00,30.0,28.9,00.0,38.7,31.9,29.5,0000.0,0010.08,0005.60,0004.91
2022-08-09 12:57:00,,0831.2,5.00,0.00,30.0,29.0,00.0,38.7,31.9,30.2,0000.0,0010.12,0005.56,0004.91
2022-08-09 12:58:00,,0831.2,5.00,0.00,30.0,29.0,00.0,38.8,32.0,30.2,0000.0,0010.90,0005.55,0004.91
2022-08-09 12:59:00,,0831.2,5.00,0.00,30.0,29.0,00.0,38.8,32.0,30.0,0000.0,0010.92,0005.55,0004.90
